SCP
3 3 3 2 2 2 2 2 2 2 2 2 2 2 2 3 3 2 2 3 4 5 5 4 3 4 4 3 3 2 2 1 1 1 1 1 2 2 2 2 3 3 3
4 3 3 2 2 2 2 2 2 2 2 2 2 2 2 2 2 2 2 2 3 3 3 3 3 3 3 3 2 2 2 1 1 1 1 1 2 2 2 3 3 3 4
4 4 3 3 2 2 3 2 2 2 2 2 2 2 1 1 2 2 2 1 1 2 2 2 3 3 2 2 2 2 2 2 1 1 1 2 2 2 3 3 3 4 4
4 4 4 3 3 3 3 4 4 3 3 2 2 2 2 2 2 2 2 2 1 2 2 2 2 2 2 2 2 2 2 2 2 2 2 2 3 3 3 3 4 4 4
3 4 4 3 3 3 4 5 6 4 3 2 2 2 2 2 2 2 2 2 2 2 2 2 2 2 2 2 2 2 3 3 3 3 3 3 3 4 4 4 4 4 4
4 4 4 4 3 4 5 7 7 6 4 3 2 3 3 3 2 2 2 2 3 3 3 3 3 3 3 3 2 3 4 4 4 4 3 3 4 4 4 4 4 4 4
4 5 5 4 3 4 6 8 8 7 5 3 3 3 3 3 2 2 2 3 3 3 3 3 3 3 3 3 3 4 4 5 4 4 4 4 4 4 4 4 4 3 3
5 5 5 5 4 5 8 11 12 9 6 5 4 4 4 3 3 2 2 2 2 2 3 3 4 4 4 3 4 4 4 5 5 5 5 5 5 4 4 4 4 3 3
5 5 6 5 5 6 9 13 16 14 10 7 6 6 4 3 3 3 3 3 2 2 3 3 4 5 5 5 5 5 5 5 6 6 6 6 5 5 4 4 4 3 3
5 5 6 6 6 7 9 14 20 20 15 11 8 7 5 4 4 4 4 4 3 3 3 4 5 6 7 7 7 6 6 6 6 6 6 6 6 5 5 5 4 4 4
7 6 7 6 6 7 8 14 21 23 19 13 10 8 5 4 4 4 4 4 4 4 3 4 5 6 7 8 8 7 7 6 7 7 7 7 7 7 7 6 5 5 5
7 7 7 6 6 6 9 14 19 21 18 13 10 8 6 4 3 3 4 4 4 4 4 4 4 5 6 7 8 8 7 7 7 7 8 8 8 8 8 6 5 5 5
7 7 7 6 6 7 10 14 16 17 15 13 11 9 6 4 4 4 5 5 5 5 5 5 6 6 6 7 7 8 7 7 7 7 7 7 7 7 7 6 5 5 5
8 8 7 6 7 8 11 14 15 15 15 15 14 12 8 6 4 5 6 7 7 7 7 7 7 7 6 6 7 7 7 6 6 6 6 6 5 5 4 5 5 6 6
8 8 7 7 8 9 11 13 15 16 18 18 16 14 10 8 6 6 7 8 8 8 8 8 8 7 6 5 5 5 5 5 5 5 5 5 5 4 4 4 4 5 5
7 7 7 8 10 11 11 13 15 17 19 18 16 14 12 9 8 7 7 8 8 8 8 8 8 7 5 4 3 3 4 5 6 6 5 5 5 4 4 3 3 3 4
6 7 8 11 14 14 12 12 14 16 15 14 14 14 12 10 9 8 8 8 8 8 8 8 8 7 5 3 2 2 4 5 6 6 6 6 5 5 4 4 3 3 3
6 8 11 14 17 16 13 11 11 11 11 11 11 12 11 10 10 9 8 8 8 7 7 7 8 7 6 3 2 2 3 4 5 6 7 6 6 5 4 4 4 4 3
6 8 11 14 16 15 12 9 8 7 7 8 9 10 10 11 11 10 9 9 8 8 8 8 8 7 6 4 2 2 3 5 5 6 6 6 5 4 3 4 5 5 4
6 8 10 13 15 13 11 9 7 7 7 7 8 9 10 11 11 11 10 9 9 9 9 9 8 8 6 4 2 2 4 6 7 7 6 5 3 2 2 3 5 5 4
8 10 12 14 14 12 10 10 9 9 10 10 9 9 10 11 11 12 12 11 10 10 10 10 9 8 7 5 3 3 4 6 7 7 6 4 2 1 1 2 3 4 4
13 14 16 16 13 11 10 10 10 11 13 13 13 12 12 11 12 13 13 12 11 10 10 10 9 8 7 5 4 3 3 5 6 6 5 3 1 1 0 1 2 2 3
19 20 19 16 12 11 10 9 10 11 12 13 13 13 12 11 11 11 12 11 11 10 9 9 9 9 8 7 5 3 2 3 4 4 3 1 1 0 0 0 0 1 2
23 21 18 13 11 10 9 9 10 11 11 11 11 10 10 9 10 10 10 10 9 9 9 9 9 9 9 8 5 3 2 2 2 2 1 1 1 1 1 1 1 1 2
21 18 14 11 9 8 8 9 12 14 14 12 9 7 6 7 9 10 10 9 8 8 7 8 9 9 8 6 4 3 3 2 2 1 1 2 2 3 3 3 3 3 3
19 15 11 9 8 7 7 9 13 16 16 14 10 6 5 6 8 10 11 10 8 6 5 6 7 7 5 3 2 2 2 2 1 1 2 2 2 3 4 4 4 4 5
Wind_Speed
10 10 9 10 10 9 8 6 6 5 3 2 2 2 2 2 2 2 2 2 2 2 2 1 1 1 1 1 1 1 2 1 1 2 2 3 3 3 2 2 2 2 2
11 10 10 9 10 9 8 7 6 6 4 3 2 1 1 2 2 2 2 1 1 1 2 2 1 1 1 1 1 1 1 2 1 1 2 2 2 2 3 2 2 2 2
12 12 10 10 10 10 9 8 7 6 5 4 3 2 2 1 1 2 2 1 1 1 1 2 1 1 1 1 2 1 1 2 2 2 1 1 1 2 1 1 1 1 1
12 12 11 10 10 10 10 8 7 6 5 4 3 3 2 2 2 2 2 2 1 2 1 1 1 1 1 1 2 1 2 2 2 1 2 2 1 1 2 2 2 2 2
10 12 12 11 10 11 10 9 8 6 5 4 3 2 1 1 1 1 2 2 2 2 1 2 1 1 1 1 1 1 2 2 2 2 2 2 1 3 2 3 2 2 2
10 11 11 10 10 10 10 11 9 7 6 5 4 3 1 1 0 0 1 2 2 2 2 2 1 1 1 1 1 1 2 2 3 2 2 2 2 2 2 3 3 2 2
9 11 10 10 9 10 10 10 10 8 7 6 4 3 3 2 2 2 2 2 2 2 2 2 2 2 1 2 2 2 2 2 3 3 3 2 2 2 2 2 3 3 3
7 8 9 9 10 10 10 10 10 8 7 6 4 3 3 3 2 2 2 2 1 1 2 2 2 2 2 2 2 2 2 2 3 4 3 2 3 3 2 2 2 3 3
7 6 6 8 8 9 9 10 9 7 6 5 4 4 4 3 2 1 2 1 1 1 1 1 2 2 2 2 2 2 2 2 3 3 3 3 3 3 2 2 2 2 3
8 8 7 6 7 7 8 8 8 7 6 5 4 4 3 3 2 1 1 1 1 1 1 1 2 2 2 3 3 3 3 3 3 3 3 3 3 3 2 3 3 2 2
7 7 6 7 8 8 8 7 7 7 6 5 4 4 4 4 3 3 2 1 1 1 2 2 2 2 3 3 3 3 4 3 3 4 3 3 4 3 3 3 3 2 2
7 7 7 6 6 7 7 7 6 6 6 5 5 5 3 3 4 3 2 1 1 2 2 2 2 3 3 3 3 4 3 4 4 4 4 4 4 3 3 3 3 3 3
6 7 6 6 4 4 5 6 5 5 5 5 5 4 4 3 3 2 2 2 2 2 2 2 3 3 3 3 4 3 3 3 4 4 4 4 4 4 3 4 4 3 4
5 6 5 5 5 4 4 4 4 4 4 4 4 4 4 3 3 3 3 3 3 3 3 3 3 3 3 3 3 3 3 4 4 4 4 4 4 4 4 4 4 4 4
5 5 4 4 4 4 4 3 2 2 3 3 3 3 3 2 2 2 3 3 3 3 3 3 3 3 3 3 3 3 4 4 4 4 4 4 4 4 4 5 3 4 3
4 3 4 4 3 3 3 2 2 2 2 2 2 2 2 2 2 2 2 3 3 3 3 3 3 4 4 2 2 2 4 4 4 4 4 4 3 3 4 4 4 4 5
4 3 3 4 3 2 2 2 2 2 2 2 1 1 1 1 2 3 2 2 3 3 3 4 4 3 2 2 2 3 4 5 4 4 4 6 4 3 2 3 4 5 6
3 3 2 2 3 2 1 1 2 2 1 1 1 1 1 1 1 2 2 2 2 3 3 4 4 3 2 2 3 4 5 5 5 4 4 5 4 3 3 4 4 5 5
2 2 1 2 3 2 1 1 1 2 1 1 1 1 1 1 2 2 2 2 3 3 3 3 3 3 2 3 4 4 4 4 5 5 4 4 3 2 3 3 4 5 5
3 2 2 3 3 2 1 0 0 1 0 0 1 1 1 2 2 2 2 2 3 3 4 3 3 4 3 4 4 4 3 4 4 4 3 2 1 1 2 3 4 6 6
3 3 3 2 2 2 1 0 1 1 1 1 1 1 1 2 3 2 2 2 3 3 4 4 4 4 3 4 5 5 3 4 5 4 3 2 2 3 4 5 5 7 6
1 2 2 2 2 2 1 1 1 2 2 1 1 1 2 3 2 1 2 3 3 4 4 3 4 3 2 2 4 5 5 5 5 5 3 2 2 4 6 6 7 8 6
1 1 1 1 1 2 1 1 1 1 1 1 2 2 3 3 2 2 3 3 3 3 3 3 3 3 2 1 3 4 5 6 5 4 5 5 5 5 5 7 7 6 4
1 1 2 1 1 1 1 1 1 0 1 1 2 2 3 3 2 2 2 3 3 3 3 3 4 3 2 1 0 2 3 4 5 5 5 6 7 6 5 4 4 4 4
1 1 1 1 1 2 1 1 1 1 2 2 3 3 4 3 2 3 3 3 2 2 3 3 3 3 3 1 2 2 3 3 3 4 4 4 3 3 3 4 3 3 3
1 1 1 1 1 1 1 0 0 1 2 3 3 4 4 2 3 3 3 2 3 3 3 4 3 2 2 3 3 4 4 5 5 4 4 4 4 4 4 4 3 3 3
Wind_Direction
149 146 147 141 137 135 136 137 139 130 133 139 151 155 158 159 148 157 138 138 151 152 161 138 160 214 237 219 232 215 256 259 260 279 288 271 252 232 217 219 224 222 211
149 150 152 149 145 141 141 143 148 144 155 145 137 146 137 153 152 129 130 149 151 168 181 137 188 183 215 214 262 219 281 288 290 282 293 298 286 286 235 206 211 215 203
155 156 160 159 154 152 155 153 151 149 161 153 157 165 164 165 137 137 141 167 170 199 220 154 194 215 229 201 230 230 233 258 269 253 262 301 313 308 269 256 241 202 205
158 158 162 163 160 156 152 147 147 148 155 166 180 186 168 160 163 158 145 164 190 215 195 158 173 219 243 212 236 199 255 256 267 271 256 252 266 283 312 286 259 225 229
157 157 160 164 168 160 155 151 149 150 154 173 177 196 177 174 157 148 151 182 199 215 195 170 180 187 233 232 287 267 259 276 283 292 291 278 258 245 253 282 289 280 256
156 155 155 156 166 163 158 155 152 155 164 179 177 179 190 204 160 207 199 215 193 188 190 167 168 179 219 224 260 275 274 279 293 296 292 294 290 284 274 286 295 291 281
151 150 154 158 164 162 156 153 153 163 173 180 186 186 191 203 210 238 233 239 218 174 169 169 179 196 215 232 229 242 251 270 277 276 279 286 281 288 284 275 288 295 291
143 147 154 162 165 163 157 153 155 163 171 176 182 184 191 217 215 223 253 244 255 153 154 176 188 203 223 244 224 236 241 246 258 270 280 281 283 282 279 278 289 296 297
138 139 153 160 162 160 159 157 155 159 166 171 174 186 197 216 229 226 241 249 248 217 159 200 210 217 225 245 255 250 258 258 253 264 272 270 274 274 279 279 266 266 292
142 148 155 157 153 152 155 157 158 159 164 172 186 186 193 205 203 237 267 307 321 335 242 256 256 246 243 246 244 255 253 254 255 255 266 276 280 282 277 274 275 265 263
138 143 148 145 141 147 152 153 160 163 170 184 193 196 186 192 200 209 221 231 249 268 268 266 267 261 254 256 256 253 260 261 257 258 259 264 268 279 290 292 287 281 277
138 131 125 128 144 153 156 158 165 171 177 186 186 192 192 195 202 199 204 224 244 248 256 265 265 266 266 272 270 267 269 267 265 267 269 271 270 266 274 279 282 283 278
126 131 132 131 140 150 152 158 167 178 182 179 186 184 184 203 211 205 195 205 221 241 245 255 261 270 276 273 271 265 264 270 270 270 270 266 269 270 271 269 272 274 278
116 119 117 123 131 130 133 142 165 177 175 175 184 179 187 201 202 205 209 214 220 228 242 249 255 259 266 275 279 283 275 275 275 275 276 274 271 273 278 272 269 272 278
104 106 113 120 129 135 135 139 160 159 161 160 173 174 182 192 199 207 213 221 232 242 244 251 254 256 255 267 281 279 272 272 275 276 277 279 284 279 278 281 280 283 278
111 104 105 108 113 128 139 146 148 146 142 154 165 161 177 191 204 211 218 226 240 255 256 258 260 262 269 297 308 310 308 291 282 286 288 280 262 265 270 278 281 279 274
112 106 109 113 112 111 124 154 158 151 158 170 160 155 179 225 237 245 230 237 249 255 257 261 261 262 261 274 294 298 292 287 281 283 288 289 284 279 274 263 268 270 265
106 103 107 122 128 129 135 161 147 146 151 167 181 179 217 241 267 270 264 256 259 262 258 263 265 264 258 244 258 282 273 280 283 279 274 280 290 287 296 283 279 272 268
78 102 111 117 102 98 110 131 160 153 167 197 219 214 239 250 262 270 274 272 269 266 263 264 261 262 257 233 247 268 272 270 278 276 275 271 260 283 303 290 288 291 286
34 56 74 94 91 76 47 31 126 115 160 263 297 289 270 257 255 257 262 267 267 267 269 265 258 253 244 221 226 240 268 277 280 274 269 275 271 225 259 280 285 284 285
15 23 38 62 83 83 72 14 47 33 8 1 323 294 282 272 254 253 267 274 275 276 272 269 264 258 241 205 207 212 254 290 295 289 279 259 211 241 261 273 273 270 280
354 360 36 47 70 89 94 73 59 37 19 348 332 314 275 268 271 259 260 265 265 269 269 269 273 270 252 208 201 202 233 278 296 299 311 320 258 259 263 265 267 268 275
349 346 355 40 56 96 114 91 62 41 340 326 322 309 292 283 269 254 254 257 257 270 279 283 279 274 267 210 174 208 248 266 275 294 315 301 277 279 271 263 263 264 261
334 343 328 342 16 11 100 88 60 356 304 305 295 285 282 281 286 275 264 266 271 272 276 285 287 289 295 354 11 247 253 260 268 282 289 270 260 266 266 261 255 251 258
338 341 333 343 343 350 16 68 57 358 322 300 284 277 271 275 272 277 285 270 263 259 267 294 306 312 310 309 302 287 278 281 276 279 265 259 257 256 260 258 246 247 254
314 314 308 299 308 306 298 16 25 316 295 286 286 281 281 278 274 269 283 306 251 247 235 247 266 289 278 275 281 289 284 280 281 274 263 263 260 260 265 271 270 262 269